Location: Taukkyan
(23.1052°N, 94.0030°E)
Time: 11:49:39
(UTC+00:00)

PSLV R/B - Pass Details

Date: 06 July 2020
Orbit: 595 x 628 km, 97.9° (Epoch: 14 August)

Event Time Altitude Azimuth Distance (km) Brightness Sun altitude
Rises 21:10:32 0° 18° (NNE) 2,875 7.9 -23.0°
Reaches altitude 10° 21:12:45 10° 23° (NNE) 1,974 7.0 -22.6°
Maximum altitude 21:16:57 54° 101° (E) 754 4.1 -21.9°
Enters shadow 21:18:51 30° 164° (SSE) 1,120 4.6 -21.5°
